Content
SEND FEEDBACK

Daily
Averages
Monthly
Summary
United States of America

FORESTDALE, MASSACHUSETTS


Home > North America > United States > Massachusetts
Elevation: 131 feet     Latitude: 41 39N     Longitude: 070 31W

WEATHER
 
SELECT A DAY
Number of Records: 270,312;   Date Range: 1/1/95 - 9/16/14
 
SHARE

PRINT THIS DATA

[ ← Previous Day ]
WEATHER ALMANAC - FEBRUARY 3, 2013
[ Next Day → ]
[ °C ]   °F
Weather ElementAverageHighLow
Temperature26.5 °F32 °F (11:35 am)19.4 °F (6:35 am)
Dewpoint21.1 °F24.8 °F (12:35 am)17.6 °F (3:35 am)
Humidity80 %93 % (12:35 am)64 % (2:15 pm)
Barometer29.84 in30.05 in (12:35 am)29.69 in (9:15 pm)
Wind Speed7.5 mph13.8 mph (9:35 pm)
Wind Gust20.7 mph (6:35 pm)
Weather ElementAverage
Visibility9 mi
Wind DirectionWNW (282.1 °)

Weather ElementTotal
Precipitation0.59 in
Heating Degree Days39.3 (Base 65)
Averaged from 71 records on February 3, 2013
WEATHER CONDITIONS BREAKOUT
WIND DIRECTION BREAKOUT
WEATHER BY HOUR - FEBRUARY 3, 2013
[ °C ]   °F
Local TimeTemperatureDewpointHumidityBarometerVisibilityWind DirectionWind SpeedGust SpeedPrecipitationEventsConditions
12:35 AM26.6 °F24.8 °F93 %30.05 in2.5 miWNW (290°)9.2 mph0.13 inSnowLight Snow
12:55 AM26.6 °F23.0 °F86 %30.04 in3.0 miWNW (300°)10.4 mph0.18 inSnowLight Snow
1:15 AM24.8 °F23.0 °F93 %30.03 in3.0 miNW (310°)8.1 mph0.03 inSnowLight Snow
1:35 AM24.8 °F21.2 °F86 %30.02 in3.0 miNW (320°)9.2 mph0.07 inSnowLight Snow
1:55 AM24.8 °F21.2 °F86 %30.02 in4.0 miNW (310°)6.9 mph0.10 inSnowLight Snow
2:15 AM24.8 °F19.4 °F80 %30.01 in5.0 miNNW (330°)5.8 mphSnowLight Snow
2:35 AM24.8 °F19.4 °F80 %30.01 in8.0 miNW (320°)3.5 mphSnowLight Snow
2:55 AM24.8 °F19.4 °F80 %30.01 in10.0 miCalm
3:15 AM24.8 °F19.4 °F80 %30.00 in10.0 miCalm
3:35 AM24.8 °F17.6 °F74 %30.00 in10.0 miCalm
3:55 AM24.8 °F17.6 °F74 %29.99 in10.0 miNNW (330°)4.6 mphThunderstorm
4:15 AM24.8 °F17.6 °F74 %29.98 in10.0 miNorth (360°)4.6 mph
4:35 AM24.8 °F17.6 °F74 %29.98 in10.0 miNorth (360°)5.8 mph
4:55 AM23.0 °F17.6 °F80 %29.97 in10.0 miNorth (350°)3.5 mph
5:15 AM23.0 °F17.6 °F80 %29.97 in10.0 miNorth (350°)3.5 mph
5:35 AM23.0 °F19.4 °F86 %29.96 in6.0 miNW (310°)3.5 mph
5:55 AM23.0 °F19.4 °F86 %29.95 in6.0 miNW (320°)3.5 mphSnowLight Snow
6:15 AM21.2 °F19.4 °F93 %29.94 in7.0 miNW (320°)3.5 mphSnowLight Snow
6:35 AM19.4 °F17.6 °F93 %29.95 in10.0 miNW (310°)3.5 mph
6:55 AM21.2 °F17.6 °F86 %29.94 in10.0 miNW (320°)4.6 mph
7:15 AM23.0 °F19.4 °F86 %29.95 in10.0 miNW (310°)3.5 mph
7:35 AM23.0 °F19.4 °F86 %29.97 in10.0 miWSW (250°)4.6 mph
7:55 AM23.0 °F19.4 °F86 %29.97 in10.0 miWest (270°)3.5 mph
8:15 AM23.0 °F19.4 °F86 %29.96 in10.0 miWest (270°)3.5 mph
8:35 AM23.0 °F19.4 °F86 %29.96 in9.0 miCalm
8:55 AM24.8 °F19.4 °F80 %29.95 in5.0 miWNW (290°)3.5 mph
9:15 AM24.8 °F21.2 °F86 %29.93 in6.0 miNW (320°)5.8 mph
9:35 AM24.8 °F21.2 °F86 %29.92 in10.0 miNW (310°)6.9 mph
9:55 AM24.8 °F21.2 °F86 %29.91 in10.0 miNW (320°)8.1 mph
10:15 AM26.6 °F23.0 °F86 %29.91 in10.0 miNW (320°)6.9 mph
10:35 AM26.6 °F23.0 °F86 %29.89 in10.0 miNW (320°)6.9 mph
10:55 AM28.4 °F23.0 °F80 %29.87 in10.0 miNW (320°)6.9 mph
11:15 AM30.2 °F23.0 °F75 %29.85 in10.0 miNorth (360°)6.9 mph
11:35 AM32.0 °F23.0 °F69 %29.83 in10.0 miNorth (350°)4.6 mph
11:55 AM32.0 °F23.0 °F69 %29.82 in10.0 miNNE (20°)4.6 mph
12:15 PM32.0 °F23.0 °F69 %29.82 in10.0 miNorth (10°)6.9 mph
12:35 PM32.0 °F23.0 °F69 %29.81 in10.0 miNNE (20°)8.1 mph
12:55 PM32.0 °F23.0 °F69 %29.80 in10.0 miNE (40°)6.9 mph
1:15 PM32.0 °F23.0 °F69 %29.79 in10.0 miNorth (10°)8.1 mph
1:35 PM32.0 °F23.0 °F69 %29.77 in10.0 miNNE (20°)11.5 mph
1:55 PM32.0 °F23.0 °F69 %29.77 in10.0 miNNW (340°)5.8 mph
2:15 PM32.0 °F21.2 °F64 %29.76 in10.0 miNNW (330°)8.1 mph
2:35 PM32.0 °F23.0 °F69 %29.76 in10.0 miNorth (350°)8.1 mph
2:55 PM32.0 °F23.0 °F69 %29.76 in10.0 miNorth (360°)5.8 mph
3:15 PM32.0 °F23.0 °F69 %29.76 in10.0 miNorth (360°)8.1 mph
3:35 PM32.0 °F23.0 °F69 %29.75 in10.0 miNNW (340°)8.1 mph
3:55 PM30.2 °F23.0 °F75 %29.74 in10.0 miNorth (360°)11.5 mph16.1 mph
4:15 PM28.4 °F23.0 °F80 %29.73 in10.0 miNorth (350°)9.2 mph
4:35 PM28.4 °F23.0 °F80 %29.71 in10.0 miNorth (350°)10.4 mph16.1 mph
4:55 PM28.4 °F23.0 °F80 %29.71 in10.0 miNNW (340°)6.9 mph
5:15 PM28.4 °F23.0 °F80 %29.72 in10.0 miNNW (340°)8.1 mph
5:35 PM28.4 °F23.0 °F80 %29.72 in10.0 miNNW (340°)12.7 mph19.6 mph
5:55 PM26.6 °F23.0 °F86 %29.72 in10.0 miNNW (340°)9.2 mph18.4 mph
6:15 PM26.6 °F23.0 °F86 %29.72 in10.0 miNNW (330°)10.4 mph19.6 mph
6:35 PM26.6 °F23.0 °F86 %29.72 in10.0 miNW (320°)12.7 mph20.7 mph
6:55 PM26.6 °F23.0 °F86 %29.73 in10.0 miNNW (330°)10.4 mph18.4 mph
7:15 PM26.6 °F21.2 °F80 %29.72 in10.0 miNNW (330°)12.7 mph18.4 mph
7:35 PM26.6 °F21.2 °F80 %29.72 in10.0 miNNW (330°)9.2 mph18.4 mph
7:55 PM26.6 °F21.2 °F80 %29.71 in10.0 miNNW (330°)12.7 mph
8:15 PM26.6 °F21.2 °F80 %29.71 in10.0 miNNW (330°)10.4 mph
8:35 PM26.6 °F21.2 °F80 %29.70 in10.0 miNNW (340°)12.7 mph18.4 mph
8:55 PM26.6 °F21.2 °F80 %29.70 in10.0 miNNW (330°)9.2 mph19.6 mph
9:15 PM26.6 °F21.2 °F80 %29.69 in10.0 miNW (320°)11.5 mph19.6 mph
9:35 PM24.8 °F21.2 °F86 %29.69 in10.0 miNNW (330°)13.8 mph20.7 mph
9:55 PM24.8 °F21.2 °F86 %29.69 in10.0 miNW (320°)11.5 mph16.1 mph
10:15 PM24.8 °F19.4 °F80 %29.69 in10.0 miNNW (330°)11.5 mph19.6 mph
10:35 PM24.8 °F19.4 °F80 %29.69 in10.0 miNW (320°)12.7 mph20.7 mphRainLight Rain
10:55 PM24.8 °F19.4 °F80 %29.69 in5.0 miNNW (330°)12.7 mph17.3 mphSnowLight Snow
11:15 PM24.8 °F19.4 °F80 %29.70 in5.0 miNW (320°)13.8 mph20.7 mph0.02 inSnowLight Snow
11:35 PM24.8 °F19.4 °F80 %29.70 in10.0 miNNW (330°)12.7 mph19.6 mph0.03 inSnowLight Snow
11:55 PM24.8 °F19.4 °F80 %29.71 in10.0 miNW (320°)11.5 mph18.4 mph0.03 inSnowLight Snow
Hourly data recorded from KFMH, located miles away from Forestdale, Massachusetts







STORIES FROM OUR PARTNERS